• In Belarus
  • List of Countries
  • For 7 days
  • Water Temperature
  • Weather Map
  • Weather Widgets
  • user-avatar
    Login

    Hourly Weather La Laguna

    Today, 28 January, Tuesday

    Time Temperature Precipitation Wind Pressure Humidity
    00:00 +10°C° 0 mm 6 mps 719 mmHg 68%
    01:00 +10°C° 0 mm 6 mps 719 mmHg 68%
    02:00 +10°C° 0 mm 6 mps 718 mmHg 68%
    03:00 +9°C° 0 mm 5 mps 718 mmHg 71%
    04:00 +9°C° 0 mm 5 mps 718 mmHg 74%
    05:00 +9°C° 0 mm 5 mps 718 mmHg 77%
    06:00 +10°C° 0 mm 5 mps 718 mmHg 74%
    07:00 +12°C° 0 mm 5 mps 718 mmHg 70%
    08:00 +14°C° 0 mm 4 mps 718 mmHg 67%
    09:00 +15°C° 0 mm 4 mps 718 mmHg 57%
    10:00 +18°C° 0 mm 4 mps 719 mmHg 48%
    11:00 +20°C° 0 mm 4 mps 719 mmHg 39%
    12:00 +20°C° 0 mm 5 mps 718 mmHg 43%
    13:00 +20°C° 0 mm 5 mps 718 mmHg 46%
    14:00 +21°C° 0 mm 5 mps 717 mmHg 50%
    15:00 +20°C° 0 mm 5 mps 717 mmHg 56%
    16:00 +20°C° 0 mm 5 mps 717 mmHg 63%
    17:00 +19°C° 0 mm 4 mps 717 mmHg 69%
    18:00 +18°C° 0 mm 4 mps 717 mmHg 64%
    19:00 +15°C° 0 mm 4 mps 717 mmHg 58%
    20:00 +14°C° 0 mm 3 mps 717 mmHg 53%
    21:00 +14°C° 0 mm 3 mps 717 mmHg 44%
    22:00 +15°C° 0 mm 2 mps 717 mmHg 36%
    23:00 +15°C° 0 mm 2 mps 718 mmHg 28%

    Tomorrow, 29 January, Wednesday

    Time Temperature Precipitation Wind Pressure Humidity
    00:00 +15°C° 0 mm 2 mps 717 mmHg 28%
    01:00 +15°C° 0 mm 2 mps 717 mmHg 28%
    02:00 +15°C° 0 mm 2 mps 717 mmHg 28%
    03:00 +14°C° 0 mm 2 mps 717 mmHg 28%
    04:00 +14°C° 0 mm 2 mps 716 mmHg 28%
    05:00 +14°C° 0 mm 2 mps 716 mmHg 28%
    06:00 +15°C° 0 mm 2 mps 716 mmHg 29%
    07:00 +17°C° 0 mm 2 mps 717 mmHg 30%
    08:00 +18°C° 0 mm 2 mps 718 mmHg 30%
    09:00 +20°C° 0 mm 2 mps 718 mmHg 27%
    10:00 +23°C° 0 mm 2 mps 718 mmHg 24%
    11:00 +26°C° 0 mm 2 mps 718 mmHg 20%
    12:00 +26°C° 0 mm 2 mps 718 mmHg 20%
    13:00 +26°C° 0 mm 2 mps 717 mmHg 21%
    14:00 +26°C° 0 mm 2 mps 717 mmHg 21%
    15:00 +25°C° 0 mm 2 mps 717 mmHg 23%
    16:00 +24°C° 0 mm 2 mps 717 mmHg 25%
    17:00 +23°C° 0 mm 2 mps 717 mmHg 28%
    18:00 +21°C° 0 mm 2 mps 717 mmHg 29%
    19:00 +20°C° 0 mm 2 mps 718 mmHg 30%
    20:00 +18°C° 0 mm 3 mps 718 mmHg 32%
    21:00 +18°C° 0 mm 3 mps 718 mmHg 32%
    22:00 +19°C° 0 mm 3 mps 718 mmHg 33%
    23:00 +19°C° 0 mm 3 mps 718 mmHg 34%

    Day after tomorrow, 30 January, Thursday

    Time Temperature Precipitation Wind Pressure Humidity
    00:00 +18°C° 0 mm 3 mps 718 mmHg 35%
    01:00 +18°C° 0 mm 3 mps 718 mmHg 37%
    02:00 +18°C° 0 mm 3 mps 718 mmHg 38%
    03:00 +18°C° 0 mm 4 mps 717 mmHg 37%
    04:00 +18°C° 0 mm 4 mps 717 mmHg 35%
    05:00 +18°C° 0 mm 4 mps 717 mmHg 34%
    06:00 +19°C° 0 mm 4 mps 718 mmHg 33%
    07:00 +20°C° 0 mm 4 mps 718 mmHg 31%
    08:00 +21°C° 0 mm 4 mps 719 mmHg 30%
    09:00 +22°C° 0 mm 4 mps 719 mmHg 27%
    10:00 +25°C° 0 mm 4 mps 719 mmHg 24%
    11:00 +27°C° 0 mm 4 mps 719 mmHg 22%
    12:00 +27°C° 0 mm 4 mps 719 mmHg 21%
    13:00 +27°C° 0 mm 4 mps 718 mmHg 21%
    14:00 +27°C° 0 mm 4 mps 718 mmHg 21%
    15:00 +26°C° 0 mm 4 mps 718 mmHg 21%
    16:00 +26°C° 0 mm 4 mps 718 mmHg 22%
    17:00 +25°C° 0 mm 4 mps 718 mmHg 23%
    18:00 +23°C° 0 mm 4 mps 718 mmHg 24%
    19:00 +21°C° 0 mm 4 mps 719 mmHg 25%
    20:00 +20°C° 0 mm 3 mps 719 mmHg 26%
    21:00 +20°C° 0 mm 3 mps 719 mmHg 26%
    22:00 +20°C° 0 mm 3 mps 719 mmHg 27%
    23:00 +20°C° 0 mm 3 mps 719 mmHg 27%

    31 January, Friday

    Time Temperature Precipitation Wind Pressure Humidity
    00:00 +19°C° 0 mm 3 mps 719 mmHg 27%
    01:00 +19°C° 0 mm 3 mps 719 mmHg 27%
    02:00 +19°C° 0 mm 2 mps 719 mmHg 27%
    03:00 +19°C° 0 mm 2 mps 718 mmHg 27%
    04:00 +19°C° 0 mm 2 mps 718 mmHg 27%
    05:00 +19°C° 0 mm 2 mps 718 mmHg 27%
    06:00 +19°C° 0 mm 2 mps 718 mmHg 27%
    07:00 +20°C° 0 mm 3 mps 719 mmHg 27%
    08:00 +21°C° 0 mm 3 mps 719 mmHg 27%
    09:00 +24°C° 0 mm 3 mps 719 mmHg 24%
    10:00 +26°C° 0 mm 3 mps 720 mmHg 20%
    11:00 +27°C° 0 mm 4 mps 720 mmHg 17%
    12:00 +27°C° 0 mm 4 mps 719 mmHg 17%
    13:00 +27°C° 0 mm 4 mps 719 mmHg 16%
    14:00 +27°C° 0 mm 4 mps 719 mmHg 16%
    15:00 +27°C° 0 mm 4 mps 718 mmHg 17%
    16:00 +26°C° 0 mm 4 mps 718 mmHg 18%
    17:00 +25°C° 0 mm 3 mps 718 mmHg 19%
    18:00 +24°C° 0 mm 3 mps 719 mmHg 21%
    19:00 +21°C° 0 mm 2 mps 719 mmHg 23%
    20:00 +20°C° 0 mm 2 mps 719 mmHg 25%
    21:00 +19°C° 0 mm 2 mps 719 mmHg 26%
    22:00 +19°C° 0 mm 2 mps 719 mmHg 27%
    23:00 +19°C° 0 mm 2 mps 719 mmHg 28%

    1 February, Saturday

    Time Temperature Precipitation Wind Pressure Humidity
    00:00 +18°C° 0 mm 2 mps 719 mmHg 29%
    01:00 +18°C° 0 mm 2 mps 719 mmHg 30%
    02:00 +17°C° 0 mm 2 mps 719 mmHg 32%
    03:00 +17°C° 0 mm 2 mps 718 mmHg 33%
    04:00 +17°C° 0 mm 2 mps 718 mmHg 33%
    05:00 +17°C° 0 mm 2 mps 718 mmHg 34%
    06:00 +18°C° 0 mm 3 mps 719 mmHg 33%
    07:00 +19°C° 0 mm 3 mps 719 mmHg 32%
    08:00 +20°C° 0 mm 3 mps 719 mmHg 31%
    09:00 +22°C° 0 mm 3 mps 719 mmHg 27%
    10:00 +25°C° 0 mm 3 mps 720 mmHg 24%
    11:00 +26°C° 0 mm 3 mps 720 mmHg 21%
    12:00 +27°C° 0 mm 3 mps 719 mmHg 21%
    13:00 +27°C° 0 mm 2 mps 719 mmHg 22%
    14:00 +27°C° 0 mm 2 mps 718 mmHg 22%
    15:00 +26°C° 0 mm 2 mps 718 mmHg 24%
    16:00 +26°C° 0 mm 2 mps 718 mmHg 26%
    17:00 +25°C° 0 mm 2 mps 718 mmHg 27%
    18:00 +24°C° 0 mm 2 mps 718 mmHg 29%
    19:00 +21°C° 0 mm 2 mps 718 mmHg 30%
    20:00 +20°C° 0 mm 2 mps 718 mmHg 31%
    21:00 +20°C° 0 mm 2 mps 719 mmHg 31%
    22:00 +19°C° 0 mm 3 mps 719 mmHg 30%
    23:00 +19°C° 0 mm 3 mps 719 mmHg 30%

    2 February, Sunday

    Time Temperature Precipitation Wind Pressure Humidity
    00:00 +19°C° 0 mm 3 mps 718 mmHg 30%
    01:00 +19°C° 0 mm 3 mps 718 mmHg 29%
    02:00 +19°C° 0 mm 3 mps 718 mmHg 29%
    03:00 +19°C° 0 mm 3 mps 717 mmHg 30%
    04:00 +18°C° 0 mm 3 mps 717 mmHg 30%
    05:00 +18°C° 0 mm 4 mps 717 mmHg 31%
    06:00 +19°C° 0 mm 4 mps 718 mmHg 31%
    07:00 +19°C° 0 mm 4 mps 718 mmHg 30%
    08:00 +20°C° 0 mm 4 mps 718 mmHg 30%
    09:00 +22°C° 0 mm 4 mps 718 mmHg 25%
    10:00 +23°C° 0 mm 4 mps 719 mmHg 20%
    11:00 +25°C° 0 mm 4 mps 719 mmHg 15%
    12:00 +25°C° 0 mm 4 mps 718 mmHg 15%
    13:00 +26°C° 0 mm 4 mps 718 mmHg 14%
    14:00 +26°C° 0 mm 4 mps 717 mmHg 13%
    15:00 +25°C° 0 mm 3 mps 718 mmHg 15%
    16:00 +24°C° 0 mm 3 mps 718 mmHg 16%
    17:00 +23°C° 0 mm 2 mps 718 mmHg 17%
    18:00 +20°C° 0 mm 2 mps 718 mmHg 18%
    19:00 +20°C° 0 mm 1 mps 718 mmHg 20%
    20:00 +16°C° 0 mm 0 mps 718 mmHg 21%
    21:00 +16°C° 0 mm 0 mps 718 mmHg 21%
    22:00 +16°C° 0 mm 1 mps 718 mmHg 20%
    23:00 +16°C° 0 mm 1 mps 718 mmHg 20%
    Show more